This is the latest recevied weather packets stored in our database for station/object K7FED. If no packets are shown the sender has not sent any weather packets the latest 10 day(s).
| Time | Temp. | Humidity | Pressure | Rain* | Wind** | Luminosity | Snow |
|---|---|---|---|---|---|---|---|
| 1777929484 | 16.67° C | 68% | 1013.6 hPa | 0 mm | - | 191 W/m² | - |
| 1777929182 | 16.67° C | 69% | 1013.6 hPa | 0 mm | - | 141 W/m² | - |
| 1777928882 | 16.67° C | 70% | 1013.6 hPa | 0 mm | - | 90 W/m² | - |
| 1777928581 | 16.67° C | 69% | 1013.6 hPa | 0 mm | - | 76 W/m² | - |
| 1777928281 | 16.67° C | 70% | 1013.7 hPa | 0 mm | - | 52 W/m² | - |
| 1777927981 | 16.67° C | 69% | 1013.7 hPa | 0 mm | - | 44 W/m² | - |
| 1777927682 | 16.67° C | 69% | 1013.7 hPa | 0 mm | - | 38 W/m² | - |
| 1777927382 | 16.67° C | 69% | 1013.7 hPa | 0 mm | - | 41 W/m² | - |
| 1777927081 | 16.67° C | 69% | 1013.7 hPa | 0 mm | - | 57 W/m² | - |
| 1777926781 | 17.22° C | 68% | 1013.6 hPa | 0 mm | - | 134 W/m² | - |
| 1777926482 | 17.22° C | 67% | 1013.6 hPa | 0 mm | - | 97 W/m² | - |
| 1777926182 | 17.78° C | 65% | 1013.5 hPa | 0 mm | - | 50 W/m² | - |
| 1777925882 | 17.78° C | 65% | 1013.5 hPa | 0 mm | - | 58 W/m² | - |
| 1777925582 | 18.33° C | 59% | 1013.3 hPa | 0 mm | - | 64 W/m² | - |
| 1777925281 | 18.33° C | 60% | 1013.3 hPa | 0 mm | - | 104 W/m² | - |
| 1777924982 | 18.33° C | 61% | 1013.3 hPa | 0 mm | - | 149 W/m² | - |
| 1777924679 | 18.33° C | 59% | 1013.4 hPa | 0 mm | - | 187 W/m² | - |
| 1777924379 | 18.33° C | 59% | 1013.5 hPa | 0 mm | - | 352 W/m² | - |
| 1777924076 | 18.33° C | 59% | 1013.5 hPa | 0 mm | - | 302 W/m² | - |
| 1777923776 | 18.33° C | 60% | 1013.5 hPa | 0 mm | - | 348 W/m² | - |
| 1777923475 | 17.78° C | 61% | 1013.5 hPa | 0 mm | - | 263 W/m² | - |
| 1777923173 | 17.22° C | 62% | 1013.5 hPa | 0 mm | - | 611 W/m² | - |
| 1777922875 | 17.22° C | 64% | 1013.6 hPa | 0 mm | - | 499 W/m² | - |
| 1777922573 | 17.22° C | 63% | 1013.7 hPa | 0 mm | - | 487 W/m² | - |
| 1777922275 | 17.22° C | 65% | 1013.7 hPa | 0 mm | - | 284 W/m² | - |
* Rain latest hour (hover to see other rain measurements)
** Current wind speed in m/s (hover to see current wind gust speed)